Вернуться в каталог

COSMOS 1538

АктивенВоенныеLEO
NORAD 14759·PAYLOAD·🇷🇺 Russia

Запущен Feb 21, 1984 с Plesetsk Cosmodrome

Loading…

Ближайшие Пролёты (ближайшие 24 часа)

TLE

СвежийSource: Space-Track

Эпоха: Sep 14, 2026, 20:23 UTC

1 14759U 84019A   26257.84969987  .00000058  00000-0  29635-4 0  9992
2 14759  74.0384 115.1393 0021803 243.2294 116.6628 14.34540344225828

Отслеживайте COSMOS 1538 в реальном времени с AllMySat

Download on the App Store